This is the latest recevied weather packets stored in our database for station/object KD8FRE. If no packets are shown the sender has not sent any weather packets the latest 1 day(s).
| Time | Temp. | Humidity | Pressure | Rain* | Wind** | Luminosity | Snow |
|---|---|---|---|---|---|---|---|
| 1777979879 | 13.33° C | 73% | 1003.4 hPa | 0 mm | 1.34 m/s, 257° | 16 W/m² | - |
| 1777979574 | 13.33° C | 74% | 1003.3 hPa | 0 mm | 0.89 m/s, 272° | 12 W/m² | - |
| 1777979270 | 13.33° C | 76% | 1003.3 hPa | 0 mm | 1.79 m/s, 271° | 16 W/m² | - |
| 1777978968 | 13.33° C | 78% | 1003 hPa | 0 mm | 1.34 m/s, 291° | 16 W/m² | - |
| 1777978664 | 13.33° C | 79% | 1003 hPa | 0 mm | 1.79 m/s, 278° | 15 W/m² | - |
| 1777978360 | 13.33° C | 80% | 1002.8 hPa | 0 mm | 2.24 m/s, 277° | 11 W/m² | - |
| 1777978057 | 13.33° C | 81% | 1002.8 hPa | 0 mm | 1.79 m/s, 268° | 9 W/m² | - |
| 1777977754 | 13.33° C | 82% | 1003 hPa | 0 mm | 0.89 m/s, 260° | 6 W/m² | - |
| 1777977450 | 13.33° C | 82% | 1002.9 hPa | 0 mm | 1.79 m/s, 254° | 4 W/m² | - |
| 1777977148 | 13.33° C | 82% | 1002.9 hPa | 0 mm | 1.34 m/s, 286° | 2 W/m² | - |
| 1777976845 | 13.33° C | 82% | 1002.6 hPa | 0 mm | 1.79 m/s, 260° | 2 W/m² | - |
| 1777976544 | 13.33° C | 82% | 1002.7 hPa | 0 mm | 1.79 m/s, 259° | 1 W/m² | - |
| 1777976242 | 13.33° C | 82% | 1002.7 hPa | 0 mm | 1.79 m/s, 257° | 1 W/m² | - |
| 1777975938 | 13.33° C | 82% | 1002.5 hPa | 0 mm | 1.34 m/s, 283° | 0 W/m² | - |
| 1777975635 | 13.33° C | 81% | 1002 hPa | 0 mm | 0.89 m/s, 289° | 0 W/m² | - |
| 1777975332 | 13.33° C | 81% | 1002.2 hPa | 0 mm | 0.45 m/s, 300° | 0 W/m² | - |
| 1777975027 | 13.89° C | 81% | 1002 hPa | 0 mm | 1.79 m/s, 266° | 0 W/m² | - |
| 1777974725 | 13.89° C | 81% | 1002 hPa | 0 mm | 0.89 m/s, 281° | 0 W/m² | - |
| 1777974420 | 13.89° C | 81% | 1002.2 hPa | 0 mm | 0.89 m/s, 282° | 0 W/m² | - |
| 1777974117 | 13.89° C | 81% | 1001.8 hPa | 0 mm | 0.45 m/s, 286° | 0 W/m² | - |
| 1777973813 | 13.89° C | 82% | 1002.2 hPa | 0 mm | 1.79 m/s, 268° | 0 W/m² | - |
| 1777973511 | 13.89° C | 81% | 1002.1 hPa | 0 mm | 1.79 m/s, 275° | 0 W/m² | - |
| 1777973208 | 13.89° C | 82% | 1002.1 hPa | 0 mm | 1.34 m/s, 228° | 0 W/m² | - |
| 1777972907 | 13.89° C | 82% | 1002.1 hPa | 0 mm | 1.79 m/s, 248° | 0 W/m² | - |
| 1777972603 | 13.89° C | 82% | 1001.9 hPa | 0 mm | 2.24 m/s, 276° | 0 W/m² | - |
* Rain latest hour (hover to see other rain measurements)
** Current wind speed in m/s (hover to see current wind gust speed)